GW4199 Weather Reports


time (UTC)temp
C
wind
direction
speed
KPH
gust
KPH
rain 1hr
cm
rain 24hr
cm
rain mn
cm
humidity
%
barometer
mb
20260906130953 26 39 4.8 8.0 0.00 0.00 0.00 78 1011.5
20260906130454 26 21 4.8 8.0 0.00 0.00 0.00 78 1011.5
20260906125956 26 340 4.8 11.3 0.00 0.00 0.00 78 1011.4
20260906125456 26 6 6.4 12.9 0.00 0.00 0.00 78 1011.3
20260906124955 26 17 8.0 12.9 0.00 0.00 0.00 77 1011.3
20260906124456 26 10 6.4 11.3 0.00 0.00 0.00 79 1011.2
20260906123956 26 12 6.4 14.5 0.00 0.00 0.00 79 1011.2
20260906123454 26 13 9.7 14.5 0.00 0.00 0.00 80 1011.2
20260906122957 25 351 8.0 11.3 0.00 0.00 0.00 81 1011.2
20260906122454 25 25 6.4 9.7 0.00 0.00 0.00 82 1011.1
20260906121955 25 31 8.0 9.7 0.00 0.00 0.00 82 1011.1
20260906121458 25 28 4.8 9.7 0.00 0.00 0.00 84 1011.0
20260906120955 25 15 6.4 11.3 0.00 0.00 0.00 84 1011.0
20260906120453 25 20 6.4 11.3 0.00 0.00 0.00 84 1010.9
20260906115955 25 36 8.0 11.3 0.00 0.00 0.00 85 1010.8
20260906115456 25 30 6.4 9.7 0.00 0.00 0.00 85 1010.8
20260906114953 25 25 4.8 9.7 0.00 0.00 0.00 86 1010.7
20260906114455 25 15 6.4 9.7 0.00 0.00 0.00 86 1010.6
20260906113958 24 23 6.4 8.0 0.00 0.00 0.00 87 1010.7
20260906113455 24 22 4.8 6.4 0.00 0.00 0.00 87 1010.5
20260906112956 24 33 4.8 8.0 0.00 0.00 0.00 88 1010.6
20260906112454 24 34 6.4 8.0 0.00 0.00 0.00 88 1010.6
20260906111958 24 36 4.8 8.0 0.00 0.00 0.00 87 1010.5
20260906111456 24 49 4.8 11.3 0.00 0.00 0.00 88 1010.4
20260906110955 24 44 6.4 12.9 0.00 0.00 0.00 88 1010.4
20260906110454 24 15 8.0 12.9 0.00 0.00 0.00 89 1010.4
20260906105954 24 27 8.0 12.9 0.00 0.00 0.00 90 1010.3
20260906105456 24 6 8.0 12.9 0.00 0.00 0.00 91 1010.2
20260906104954 24 338 6.4 8.0 0.00 0.00 0.00 92 1010.1
20260906104454 24 351 3.2 4.8 0.00 0.00 0.00 92 1010.1
20260906103954 24 48 3.2 4.8 0.00 0.00 0.00 92 1010.1
20260906103454 24 37 3.2 8.0 0.00 0.00 0.00 92 1010.0
20260906102955 24 28 4.8 8.0 0.00 0.00 0.00 92 1010.0
20260906102454 24 43 4.8 8.0 0.00 0.00 0.00 92 1010.0
20260906101957 24 30 6.4 8.0 0.00 0.00 0.00 91 1010.0
20260906101457 24 17 4.8 8.0 0.00 0.00 0.00 91 1009.9
20260906100956 24 14 6.4 8.0 0.00 0.00 0.00 91 1009.9
20260906100456 24 19 4.8 11.3 0.00 0.00 0.00 91 1009.9
20260906095957 25 9 6.4 11.3 0.00 0.00 0.00 90 1009.8
20260906095455 25 357 8.0 12.9 0.00 0.00 0.00 90 1009.7
20260906094954 25 355 9.7 12.9 0.00 0.00 0.00 89 1009.7
20260906094455 25 360 8.0 11.3 0.00 0.00 0.00 89 1009.7
20260906093954 25 347 4.8 8.0 0.00 0.00 0.00 89 1009.6
20260906093455 25 334 4.8 6.4 0.00 0.00 0.00 89 1009.5
20260906092955 25 340 4.8 8.0 0.00 0.00 0.00 89 1009.5
20260906092457 25 359 4.8 11.3 0.00 0.00 0.00 89 1009.4
20260906091955 25 18 6.4 11.3 0.00 0.00 0.00 88 1009.4
20260906091455 25 6 8.0 11.3 0.00 0.00 0.00 88 1009.5
20260906090955 25 351 8.0 11.3 0.00 0.00 0.00 88 1009.6
20260906090455 25 11 6.4 9.7 0.00 0.00 0.00 88 1009.4
20260906085956 25 328 6.4 9.7 0.00 0.00 0.00 87 1009.3
20260906085455 25 325 9.7 9.7 0.00 0.00 0.00 88 1009.2
20260906084955 25 327 8.0 9.7 0.00 0.00 0.00 87 1009.3
20260906084457 25 4 6.4 11.3 0.00 0.00 0.00 88 1009.4
20260906083955 25 4 6.4 12.9 0.00 0.00 0.00 87 1009.4
20260906083457 25 330 8.0 14.5 0.00 0.00 0.00 87 1009.3
20260906082955 25 334 11.3 14.5 0.00 0.00 0.00 88 1009.4
20260906082453 25 330 9.7 12.9 0.00 0.00 0.00 88 1009.3
20260906081956 25 11 8.0 12.9 0.00 0.00 0.00 88 1009.3
20260906081455 25 15 8.0 12.9 0.00 0.00 0.00 88 1009.3
20260906080955 25 356 8.0 9.7 0.00 0.00 0.00 88 1009.4
20260906080456 25 20 4.8 14.5 0.00 0.00 0.00 87 1009.4
20260906075955 25 6 9.7 17.7 0.00 0.00 0.00 87 1009.5
20260906075455 25 18 12.9 17.7 0.00 0.00 0.00 87 1009.6
20260906074955 25 32 9.7 14.5 0.00 0.00 0.00 87 1009.6
20260906074458 25 53 11.3 14.5 0.00 0.00 0.00 87 1009.4
20260906073957 26 30 9.7 12.9 0.00 0.00 0.00 86 1009.5
20260906073455 26 25 6.4 11.3 0.00 0.00 0.00 86 1009.4
20260906072957 26 342 6.4 14.5 0.00 0.00 0.00 86 1009.4
20260906072456 26 343 9.7 14.5 0.00 0.00 0.00 85 1009.4
20260906071956 26 323 12.9 14.5 0.00 0.00 0.00 87 1009.5
20260906071456 26 333 9.7 11.3 0.00 0.00 0.00 88 1009.6
20260906070954 26 319 9.7 11.3 0.00 0.00 0.00 86 1009.6
20260906070455 26 324 8.0 9.7 0.00 0.00 0.00 86 1009.7
20260906065955 27 329 8.0 9.7 0.00 0.00 0.00 88 1009.9
20260906065454 26 356 3.2 4.8 0.00 0.00 0.00 89 1010.0
20260906064957 26 25 1.6 3.2 0.00 0.00 0.00 90 1010.0
20260906064456 26 27 1.6 3.2 0.00 0.00 0.00 89 1010.1
20260906063954 26 27 1.6 4.8 0.00 0.00 0.00 89 1010.1
20260906063455 26 27 4.8 4.8 0.00 0.00 0.00 89 1010.1
20260906062956 26 28 3.2 6.4 0.00 0.00 0.00 89 1010.1
20260906062455 26 27 3.2 6.4 0.00 0.00 0.00 90 1010.1
20260906061956 26 17 3.2 6.4 0.00 0.00 0.00 91 1010.2
20260906061457 26 31 4.8 6.4 0.00 0.00 0.00 92 1010.3
20260906060957 26 49 3.2 6.4 0.00 0.00 0.00 92 1010.3
20260906060457 26 50 4.8 6.4 0.00 0.00 0.00 92 1010.3
20260906060000 26 58 3.2 4.8 0.00 0.00 0.00 93 1010.2
20260906055457 26 58 3.2 4.8 0.00 0.00 0.00 93 1010.2
20260906054954 26 56 1.6 6.4 0.00 0.00 0.00 93 1010.2
20260906054455 26 48 1.6 6.4 0.00 0.00 0.00 93 1010.2
20260906053958 27 48 4.8 6.4 0.00 0.00 0.00 93 1010.3
20260906053455 27 64 3.2 4.8 0.00 0.00 0.00 93 1010.4
20260906052958 27 76 3.2 8.0 0.00 0.00 0.00 93 1010.3
20260906052456 27 56 6.4 8.0 0.00 0.00 0.00 93 1010.4
20260906051956 27 50 3.2 4.8 0.00 0.00 0.00 93 1010.3
20260906051456 27 27 3.2 6.4 0.00 0.00 0.00 93 1010.4
20260906050956 27 27 3.2 6.4 0.00 0.00 0.00 92 1010.4
20260906050456 27 15 3.2 8.0 0.00 0.00 0.00 92 1010.4
20260906045959 28 10 3.2 8.0 0.00 0.00 0.00 92 1010.3
20260906045456 28 302 4.8 8.0 0.00 0.00 0.00 91 1010.4
20260906044956 28 303 6.4 8.0 0.00 0.00 0.00 91 1010.4
20260906044458 28 306 3.2 6.4 0.00 0.00 0.00 91 1010.6
20260906043957 28 298 4.8 6.4 0.00 0.00 0.00 90 1010.7
20260906043455 28 310 3.2 6.4 0.00 0.00 0.00 90 1010.8
20260906042957 28 321 3.2 4.8 0.00 0.00 0.00 91 1010.9
20260906042456 28 11 1.6 6.4 0.00 0.00 0.00 91 1010.9
20260906041955 28 351 3.2 6.4 0.00 0.00 0.00 91 1010.9
20260906041457 28 321 3.2 4.8 0.00 0.00 0.00 91 1011.0
20260906040958 28 349 3.2 6.4 0.00 0.00 0.00 91 1010.9
20260906040456 28 288 3.2 8.0 0.00 0.00 0.00 91 1011.0
20260906035957 28 270 4.8 8.0 0.00 0.00 0.00 91 1011.0
20260906035456 28 293 3.2 4.8 0.00 0.00 0.00 91 1011.0
20260906034956 28 286 1.6 4.8 0.00 0.00 0.00 91 1010.9
20260906034500 28 285 3.2 8.0 0.00 0.00 0.00 91 1010.8
20260906034000 28 281 4.8 8.0 0.00 0.00 0.00 91 1010.8
20260906033459 28 283 6.4 9.7 0.00 0.00 0.00 91 1010.7
20260906032958 28 275 3.2 9.7 0.00 0.00 0.00 91 1010.6
20260906032456 28 280 4.8 14.5 0.00 0.00 0.00 91 1010.7
20260906031959 28 282 9.7 14.5 0.00 0.00 0.00 91 1010.8
20260906031455 28 260 8.0 11.3 0.00 0.00 0.00 91 1010.8
20260906030955 28 269 9.7 11.3 0.00 0.00 0.00 91 1010.8
20260906030458 28 262 6.4 9.7 0.00 0.00 0.00 91 1010.7
20260906025958 28 246 4.8 9.7 0.00 0.00 0.00 91 1010.8
20260906025457 28 278 4.8 12.9 0.00 0.00 0.00 91 1010.8
20260906024956 28 257 8.0 16.1 0.00 0.00 0.00 91 1010.7
20260906024457 28 266 6.4 17.7 0.00 0.00 0.00 91 1010.6
20260906023957 28 257 9.7 20.9 0.00 0.00 0.00 91 1010.4
20260906023457 28 273 12.9 20.9 0.00 0.00 0.00 91 1010.2
20260906022958 28 257 17.7 20.9 0.00 0.00 0.00 90 1010.0
20260906022458 28 244 16.1 20.9 0.00 0.00 0.00 90 1009.6
20260906021958 28 224 17.7 20.9 0.00 0.00 0.00 90 1009.5
20260906021500 28 224 11.3 14.5 0.00 0.00 0.00 90 1009.9
20260906020958 28 270 4.8 11.3 0.00 0.00 0.00 90 1010.2
20260906020458 28 303 9.7 11.3 0.00 0.00 0.00 90 1010.1
20260906020000 28 267 3.2 11.3 0.00 0.00 0.00 90 1009.9
20260906015455 28 248 9.7 11.3 0.00 0.00 0.00 90 1010.0
20260906014956 28 279 8.0 20.9 0.00 0.00 0.00 90 1009.7
20260906014457 28 250 11.3 22.5 0.00 0.00 0.00 90 1009.4
20260906013955 28 233 12.9 24.1 0.00 0.00 0.00 90 1009.1
20260906013456 28 217 19.3 24.1 0.00 0.00 0.00 90 1008.9
20260906012958 28 219 19.3 22.5 0.00 0.00 0.00 90 1009.1
20260906012456 28 214 11.3 14.5 0.00 0.00 0.00 90 1009.5
20260906011956 28 252 11.3 19.3 0.00 0.00 0.00 90 1009.9
20260906011458 28 219 11.3 20.9 0.00 0.00 0.00 89 1010.0
20260906010958 28 242 14.5 20.9 0.00 0.00 0.00 89 1010.1
20260906010500 28 262 14.5 19.3 0.00 0.00 0.00 89 1010.2
20260906005957 28 258 12.9 19.3 0.00 0.00 0.00 89 1010.2
20260906005458 28 247 14.5 20.9 0.00 0.00 0.00 89 1010.1
20260906004958 28 245 14.5 20.9 0.00 0.00 0.00 89 1010.0
20260906004500 28 245 14.5 20.9 0.00 0.00 0.00 89 1010.1
20260906003955 28 264 11.3 19.3 0.00 0.00 0.00 89 1010.3
20260906003455 28 240 12.9 19.3 0.00 0.00 0.00 89 1010.3
20260906002958 28 242 12.9 19.3 0.00 0.00 0.00 89 1010.3
20260906002457 28 243 12.9 19.3 0.00 0.00 0.00 89 1010.3
20260906001956 28 252 12.9 20.9 0.00 0.00 0.00 88 1010.6
20260906001458 28 251 14.5 20.9 0.00 0.00 0.00 88 1010.7
20260906000957 28 238 12.9 24.1 0.00 0.00 0.00 88 1010.6
20260906000457 28 250 14.5 24.1 0.00 0.00 0.00 88 1010.7
20260905235958 28 239 14.5 20.9 0.00 0.00 0.00 87 1010.8
20260905235458 28 235 16.1 20.9 0.00 0.00 0.00 87 1010.8
20260905234957 28 235 14.5 22.5 0.00 0.00 0.00 88 1010.7
20260905234458 28 237 16.1 25.7 0.00 0.00 0.00 88 1010.7
20260905233958 28 233 19.3 25.7 0.00 0.00 0.00 87 1010.8
20260905233458 28 238 17.7 24.1 0.00 0.00 0.00 88 1010.8
20260905232959 28 229 19.3 25.7 0.00 0.00 0.00 88 1010.8
20260905232458 28 257 17.7 25.7 0.00 0.00 0.00 88 1010.7
20260905231956 28 239 17.7 27.4 0.00 0.00 0.00 88 1010.7
20260905231459 28 236 19.3 27.4 0.00 0.00 0.00 88 1010.6
20260905230957 28 231 19.3 27.4 0.00 0.00 0.00 88 1010.5
20260905230456 28 215 16.1 27.4 0.00 0.00 0.00 88 1010.7
20260905225957 28 233 19.3 27.4 0.00 0.00 0.00 87 1010.5
20260905225457 28 250 20.9 27.4 0.00 0.00 0.00 86 1010.4
20260905224958 29 224 22.5 27.4 0.00 0.00 0.00 86 1010.4
20260905224458 29 243 20.9 27.4 0.00 0.00 0.00 85 1010.4
20260905223958 29 228 20.9 29.0 0.00 0.00 0.00 86 1010.4
20260905223457 29 231 19.3 33.8 0.00 0.00 0.00 86 1010.3
20260905222959 29 219 24.1 33.8 0.00 0.00 0.00 85 1010.2
20260905222501 29 234 24.1 30.6 0.00 0.00 0.00 85 1010.1
20260905221958 29 223 25.7 30.6 0.00 0.00 0.00 85 1010.2
20260905221501 29 245 20.9 29.0 0.00 0.00 0.00 85 1010.1
20260905220958 29 224 22.5 29.0 0.00 0.00 0.00 84 1010.2
20260905220458 30 236 20.9 27.4 0.00 0.00 0.00 84 1010.2
20260905215958 30 222 17.7 25.7 0.00 0.00 0.00 84 1010.3
20260905215458 30 243 20.9 27.4 0.00 0.00 0.00 84 1010.3
20260905214958 30 217 19.3 27.4 0.00 0.00 0.00 84 1010.2
20260905214459 29 221 19.3 29.0 0.00 0.00 0.00 84 1010.1
20260905213958 29 227 24.1 29.0 0.00 0.00 0.00 84 1010.2
20260905213458 29 219 22.5 29.0 0.00 0.00 0.00 85 1010.2
20260905213000 29 227 24.1 30.6 0.00 0.00 0.00 84 1010.3
20260905212458 29 246 19.3 30.6 0.00 0.00 0.00 84 1010.3
20260905211957 29 231 24.1 30.6 0.00 0.00 0.00 84 1010.2
20260905211502 29 236 22.5 33.8 0.00 0.00 0.00 84 1010.0
20260905210958 29 227 25.7 33.8 0.00 0.00 0.00 85 1010.0
20260905210457 29 212 27.4 33.8 0.00 0.00 0.00 85 1009.9
20260905210000 29 221 20.9 30.6 0.00 0.00 0.00 86 1010.0
20260905205459 29 225 24.1 29.0 0.00 0.00 0.00 84 1010.0
20260905205000 29 211 24.1 29.0 0.00 0.00 0.00 85 1010.0
20260905204458 29 212 24.1 30.6 0.00 0.00 0.00 84 1009.8
20260905203958 29 229 20.9 30.6 0.00 0.00 0.00 85 1009.8
20260905203457 29 207 22.5 30.6 0.00 0.00 0.00 86 1009.7
20260905202957 29 231 22.5 29.0 0.00 0.00 0.00 85 1009.8
20260905202457 29 226 22.5 29.0 0.00 0.00 0.00 84 1009.8
20260905201958 29 219 22.5 25.7 0.00 0.00 0.00 84 1009.7
20260905201458 29 219 20.9 25.7 0.00 0.00 0.00 84 1009.7
20260905200958 29 220 17.7 25.7 0.00 0.00 0.00 85 1009.8
20260905200501 29 229 20.9 25.7 0.00 0.00 0.00 84 1009.8
20260905195959 29 210 19.3 25.7 0.00 0.00 0.00 85 1009.9
20260905195458 29 236 22.5 27.4 0.00 0.00 0.00 85 1010.0
20260905194958 29 219 22.5 29.0 0.00 0.00 0.00 85 1010.1
20260905194459 29 227 20.9 29.0 0.00 0.00 0.00 86 1010.1
20260905193959 29 211 22.5 27.4 0.00 0.00 0.00 85 1010.1
20260905193501 29 225 20.9 27.4 0.00 0.00 0.00 84 1010.1
20260905193001 29 224 20.9 27.4 0.00 0.00 0.00 84 1010.2
20260905192457 29 222 20.9 27.4 0.00 0.00 0.00 84 1010.3
20260905191956 29 225 20.9 24.1 0.00 0.00 0.00 84 1010.4
20260905191459 29 232 19.3 24.1 0.00 0.00 0.00 84 1010.5
20260905191000 29 234 17.7 25.7 0.00 0.00 0.00 84 1010.6
20260905190457 29 235 17.7 25.7 0.00 0.00 0.00 82 1010.6
20260905185959 29 217 19.3 25.7 0.00 0.00 0.00 83 1010.8
20260905185458 29 229 17.7 24.1 0.00 0.00 0.00 82 1010.8
20260905184959 29 219 20.9 24.1 0.00 0.00 0.00 83 1010.9
20260905184500 29 223 19.3 24.1 0.00 0.00 0.00 83 1011.0
20260905183959 29 212 20.9 24.1 0.00 0.00 0.00 82 1011.2
20260905183500 29 218 16.1 24.1 0.00 0.00 0.00 84 1011.3
20260905183000 29 214 19.3 27.4 0.00 0.00 0.00 83 1011.4
20260905182459 29 230 17.7 27.4 0.00 0.00 0.00 83 1011.4
20260905182000 29 219 19.3 22.5 0.00 0.00 0.00 84 1011.4
20260905181459 29 225 19.3 22.5 0.00 0.00 0.00 84 1011.4
20260905180959 29 240 16.1 22.5 0.00 0.00 0.00 84 1011.5
20260905180457 29 245 17.7 22.5 0.00 0.00 0.00 84 1011.6
20260905175958 29 223 16.1 22.5 0.00 0.00 0.00 84 1011.5
20260905175457 29 218 16.1 24.1 0.00 0.00 0.00 84 1011.5
20260905174957 29 233 17.7 24.1 0.00 0.00 0.00 84 1011.5
20260905174458 29 213 19.3 22.5 0.00 0.00 0.00 84 1011.6
20260905173958 29 220 19.3 22.5 0.00 0.00 0.00 84 1011.6
20260905173457 29 229 17.7 24.1 0.00 0.00 0.00 83 1011.8
20260905172959 29 207 16.1 24.1 0.00 0.00 0.00 85 1011.9
20260905172459 29 225 17.7 22.5 0.00 0.00 0.00 83 1011.9
20260905171959 29 210 19.3 27.4 0.00 0.00 0.00 84 1011.9
20260905171500 29 203 16.1 27.4 0.00 0.00 0.00 86 1011.9
20260905171000 29 215 19.3 24.1 0.00 0.00 0.00 84 1012.0
20260905170459 29 219 16.1 20.9 0.00 0.00 0.00 85 1012.0
20260905170000 29 210 16.1 22.5 0.00 0.00 0.00 85 1012.1
20260905165500 29 221 17.7 22.5 0.00 0.00 0.00 85 1012.2
20260905165000 29 210 17.7 20.9 0.00 0.00 0.00 85 1012.3
20260905164457 29 198 16.1 20.9 0.00 0.00 0.00 86 1012.3
20260905164001 29 200 17.7 20.9 0.00 0.00 0.00 86 1012.4
20260905163458 29 209 17.7 20.9 0.00 0.00 0.00 86 1012.5
20260905162959 29 201 16.1 19.3 0.00 0.00 0.00 85 1012.6
20260905162501 29 204 16.1 19.3 0.00 0.00 0.00 85 1012.8
20260905161959 29 181 14.5 16.1 0.00 0.00 0.00 84 1012.9
20260905161500 30 206 11.3 16.1 0.00 0.00 0.00 83 1012.9
20260905161001 30 210 11.3 14.5 0.00 0.00 0.00 81 1013.0
20260905160458 30 221 9.7 14.5 0.00 0.00 0.00 81 1013.1
20260905160002 30 202 6.4 9.7 0.00 0.00 0.00 79 1013.1
20260905155502 30 217 0.0 9.7 0.00 0.00 0.00 77 1013.2
20260905155002 30 299 6.4 9.7 0.00 0.00 0.00 77 1013.2
20260905154500 30 295 1.6 9.7 0.00 0.00 0.00 77 1013.2
20260905154002 30 319 3.2 9.7 0.00 0.00 0.00 78 1013.3
20260905153501 30 259 0.0 11.3 0.00 0.00 0.00 78 1013.3
20260905153000 30 315 4.8 14.5 0.00 0.00 0.00 78 1013.4
20260905152457 29 319 9.7 16.1 0.00 0.00 0.00 77 1013.3
20260905152000 29 318 9.7 16.1 0.00 0.00 0.00 80 1013.4
20260905151500 29 267 8.0 12.9 0.00 0.00 0.00 80 1013.3
20260905150959 29 295 3.2 11.3 0.00 0.00 0.00 79 1013.4
20260905150459 29 294 8.0 11.3 0.00 0.00 0.00 80 1013.5
20260905150000 29 296 8.0 12.9 0.00 0.00 0.00 82 1013.4
20260905145500 29 289 4.8 12.9 0.00 0.00 0.00 81 1013.4
20260905144959 29 276 3.2 12.9 0.00 0.00 0.00 82 1013.4
20260905144500 29 305 8.0 12.9 0.00 0.00 0.00 82 1013.4
20260905144000 28 281 8.0 12.9 0.00 0.00 0.00 83 1013.5
20260905143500 28 281 6.4 14.5 0.00 0.00 0.00 83 1013.5
20260905143000 28 294 9.7 14.5 0.00 0.00 0.00 83 1013.5
20260905142459 28 282 6.4 12.9 0.00 0.00 0.00 84 1013.5
20260905142000 28 251 11.3 12.9 0.00 0.00 0.00 84 1013.5
20260905141502 28 230 6.4 11.3 0.00 0.00 0.00 85 1013.5
20260905140958 28 260 6.4 11.3 0.00 0.00 0.00 85 1013.4
20260905140459 28 297 8.0 11.3 0.00 0.00 0.00 86 1013.4
20260905140001 28 288 4.8 12.9 0.00 0.00 0.00 86 1013.5
20260905135458 28 289 6.4 12.9 0.00 0.00 0.00 86 1013.6
20260905134959 28 300 4.8 11.3 0.00 0.00 0.00 87 1013.6
20260905134500 27 306 9.7 14.5 0.00 0.00 0.00 88 1013.7
20260905134001 27 297 4.8 14.5 0.00 0.00 0.00 88 1013.7
20260905133459 27 285 4.8 9.7 0.00 0.00 0.00 88 1013.7
20260905132959 27 290 4.8 9.7 0.00 0.00 0.00 89 1013.7
20260905132459 27 335 4.8 9.7 0.00 0.00 0.00 89 1013.7
20260905132000 27 301 4.8 12.9 0.00 0.00 0.00 90 1013.8
20260905131501 27 299 8.0 12.9 0.00 0.00 0.00 91 1013.8